FW9243 Weather Reports


time (UTC)temp
F
wind
direction
speed
knots
gust
knots
rain 1hr
in
rain 24hr
in
rain mn
in
humidity
%
barometer
mb
20260510043916 52 223 1.7 4.3 0.00 0.14 0.00 85 1006.3
20260510043414 52 223 0.9 3.5 0.00 0.14 0.00 85 1006.3
20260510043038 52 0.0 0.9 0.00 0.27 0.27 100 1006.8
20260510042915 52 45 1.7 4.3 0.00 0.14 0.00 85 1006.4
20260510042414 52 72 1.7 4.3 0.00 0.14 0.00 86 1006.4
20260510041916 52 89 1.7 3.5 0.00 0.14 0.00 86 1006.5
20260510041546 52 0 0.0 1.7 0.00 0.27 0.27 100 1006.9
20260510041414 52 152 0.9 3.5 0.00 0.14 0.00 86 1006.3
20260510040915 52 157 0.9 1.7 0.00 0.14 0.00 86 1006.4
20260510040413 52 16 0.9 2.6 0.00 0.14 0.00 85 1006.4
20260510040038 52 51 0.0 1.7 0.27 0.27 0.27 100 1006.8
20260510035915 52 248 0.0 2.6 0.00 0.14 0.00 85 1006.4
20260510035413 53 157 0.9 2.6 0.00 0.14 0.00 85 1006.4
20260510034915 53 20 1.7 2.6 0.00 0.14 0.00 86 1006.3
20260510034536 52 0 0.9 2.6 0.27 0.27 0.27 100 1006.9
20260510034413 53 63 1.7 4.3 0.00 0.14 0.00 86 1006.4
20260510033915 52 45 0.9 4.3 0.00 0.14 0.00 86 1006.4
20260510033413 52 171 2.6 4.3 0.00 0.14 0.00 86 1006.4
20260510033041 52 137 0.9 1.7 0.27 0.27 0.27 100 1007.0
20260510032914 52 178 0.9 1.7 0.00 0.14 0.00 87 1006.6
20260510032413 52 178 0.0 1.7 0.00 0.14 0.00 88 1006.5
20260510031914 52 223 0.9 1.7 0.00 0.14 0.00 88 1006.5
20260510031540 52 239 0.9 2.6 0.27 0.27 0.27 100 1007.0
20260510031413 52 147 0.9 1.7 0.00 0.14 0.00 88 1006.5
20260510030914 52 178 0.9 3.5 0.00 0.14 0.00 89 1006.6
20260510030631 52 197 0.9 3.5 0.00 0.14 0.00 89 1006.7
20260510030038 52 153 0.9 3.5 0.00 0.00 0.00 100 1007.0
20260510025913 52 206 0.9 3.5 0.00 0.14 0.00 90 1006.6
20260510025413 52 269 1.7 3.5 0.00 0.14 0.00 90 1006.6
20260510024913 52 63 0.0 0.9 0.00 0.14 0.00 90 1006.6
20260510024543 52 142 0.0 1.7 0.00 0.00 0.00 100 1007.0
20260510024412 52 45 0.0 1.7 0.00 0.14 0.00 92 1006.6
20260510023913 52 206 0.9 1.7 0.00 0.14 0.00 92 1006.6
20260510023721 52 145 0.0 0.9 0.00 0.14 0.00 92 1006.6
20260510023036 52 0 0.0 1.7 0.00 0.00 0.00 100 1007.0
20260510022914 52 234 0.9 1.7 0.00 0.14 0.00 92 1006.5
20260510022412 0 45 0.9 1.7 0.00 0.14 0.00 1006.5
20260510021913 52 269 0.0 0.9 0.00 0.14 0.00 92 1006.5
20260510021539 52 0 0.0 1.7 0.00 0.00 0.00 100 1006.9
20260510021411 52 152 0.9 0.9 0.00 0.14 0.00 92 1006.5
20260510020912 0 45 0.9 2.6 0.00 0.14 0.00 1006.5
20260510020411 52 145 1.7 1.7 0.00 0.14 0.00 92 1006.6
20260510020039 52 309 0.0 5.2 0.00 0.00 0.00 100 1007.0
20260510015913 52 89 0.0 1.7 0.00 0.14 0.00 92 1006.6
20260510015411 0 254 0.9 1.7 0.00 0.14 0.00 1006.5
20260510014912 52 142 1.7 2.6 0.00 0.14 0.00 92 1006.5
20260510014629 52 223 1.7 2.6 0.00 0.14 0.00 92 1006.5
20260510014540 52 0 0.0 1.7 0.00 0.00 0.00 100 1007.0
20260510013912 52 63 0.9 1.7 0.00 0.14 0.00 92 1006.6
20260510013410 52 161 0.9 2.6 0.00 0.14 0.00 92 1006.6
20260510013041 51 44 0.9 2.6 0.00 0.00 0.00 100 1007.0
20260510012912 52 54 0.9 2.6 0.00 0.14 0.00 92 1006.6
20260510012410 52 231 1.7 4.3 0.00 0.14 0.00 92 1006.7
20260510011912 52 107 1.7 4.3 0.00 0.14 0.00 92 1006.7
20260510011538 51 221 0.9 2.6 0.00 0.00 0.00 100 1007.2
20260510011410 52 130 0.9 2.6 0.00 0.14 0.00 93 1006.7
20260510011135 52 69 0.9 2.6 0.00 0.14 0.00 93 1006.9
20260510010410 52 269 0.9 1.7 0.00 0.14 0.00 93 1006.8
20260510010040 51 144 0.0 3.5 0.00 0.00 0.00 100 1007.2
20260510005911 52 89 0.9 1.7 0.00 0.14 0.00 93 1006.9
20260510005627 52 56 0.9 7.8 0.00 0.14 0.00 93 1006.9
20260510004911 52 140 1.7 7.8 0.00 0.14 0.00 93 1006.9
20260510004629 52 45 0.9 1.7 0.00 0.14 0.00 93 1006.9
20260510004536 51 51 0.0 1.7 0.00 0.00 0.00 100 1007.4
20260510004131 52 269 0.9 2.6 0.00 0.14 0.00 93 1006.9
20260510003410 52 269 0.9 2.6 0.00 0.14 0.00 93 1006.9
20260510003051 51 9 0.9 1.7 0.00 0.00 0.00 100 1007.4
20260510002911 52 35 0.9 2.6 0.00 0.14 0.00 93 1006.9
20260510002630 52 213 0.9 2.6 0.00 0.14 0.00 93 1007.0
20260510001911 52 45 0.9 2.6 0.00 0.14 0.00 93 1007.1
20260510001543 51 126 0.0 1.7 0.00 0.00 0.00 100 1007.5
20260510001409 52 178 0.9 1.7 0.00 0.14 0.00 93 1007.1
20260510000910 52 178 0.9 2.6 0.00 0.14 0.00 93 1007.1
20260510000411 52 161 0.9 3.5 0.00 0.14 0.00 93 1007.1
20260510000049 51 165 0.0 0.9 0.00 0.00 0.00 100 1007.6
20260509235910 52 127 0.9 3.5 0.00 0.14 0.00 93 1007.1
20260509235409 52 35 0.0 2.6 0.00 0.14 0.00 93 1007.1
20260509234910 52 1 0.9 2.6 0.00 0.14 0.00 93 1007.2
20260509234546 51 61 0.9 1.7 0.00 0.00 0.00 100 1007.6
20260509234408 52 59 0.9 2.6 0.00 0.14 0.00 93 1007.2
20260509233909 52 152 0.9 1.7 0.00 0.14 0.00 93 1007.2
20260509233408 52 89 0.0 1.7 0.00 0.14 0.00 93 1007.1
20260509233036 51 59 0.9 1.7 0.00 0.00 0.00 100 1007.5
20260509232909 52 135 0.9 1.7 0.00 0.14 0.00 93 1007.1
20260509232408 52 1 0.9 1.7 0.00 0.14 0.00 93 1007.1
20260509231909 52 117 0.9 1.7 0.00 0.14 0.00 93 1007.0
20260509231536 51 151 0.0 1.7 0.00 0.00 0.00 100 1007.4
20260509231407 52 165 0.9 1.7 0.00 0.14 0.00 93 1007.0
20260509231133 52 161 0.9 1.7 0.00 0.14 0.00 93 1007.1
20260509230407 52 45 0.0 1.7 0.00 0.14 0.00 93 1007.1
20260509230128 52 331 0.9 1.7 0.00 0.14 0.00 93 1007.2
20260509230043 52 51 0.0 1.7 0.00 0.00 0.00 100 1007.6
20260509225631 52 45 0.9 4.3 0.00 0.14 0.00 93 1007.2
20260509224909 52 314 1.7 4.3 0.00 0.14 0.00 93 1007.1
20260509224532 52 137 0.9 1.7 0.00 0.00 0.00 100 1007.4
20260509224407 52 165 0.9 3.5 0.00 0.14 0.00 93 1007.1
20260509223908 52 178 0.9 2.6 0.00 0.14 0.00 93 1007.1
20260509223406 52 135 0.9 2.6 0.00 0.14 0.00 93 1007.1
20260509223045 52 0 0.9 2.6 0.00 0.00 0.00 100 1007.4
20260509222908 53 152 0.9 3.5 0.00 0.14 0.00 93 1007.0
20260509222406 53 45 0.9 3.5 0.00 0.14 0.00 93 1007.1
20260509221907 53 149 0.9 2.6 0.00 0.14 0.00 93 1007.1
20260509221629 53 161 0.9 3.5 0.00 0.14 0.00 93 1007.0
20260509221538 52 153 0.9 1.7 0.00 0.00 0.00 100 1007.4
20260509220907 53 178 1.7 3.5 0.00 0.14 0.00 93 1007.0
20260509220629 53 1 0.0 1.7 0.00 0.14 0.00 93 1006.9
20260509220054 52 0 0.0 0.9 0.00 0.00 0.00 100 1007.4
20260509215907 53 178 0.9 1.7 0.00 0.13 0.14 93 1006.9
20260509215406 53 45 0.9 2.6 0.00 0.13 0.14 93 1006.9
20260509214907 53 135 0.9 2.6 0.00 0.13 0.14 93 1007.0
20260509214540 53 156 0.9 2.6 0.00 0.00 0.00 100 1007.4
20260509214405 53 178 0.9 1.7 0.00 0.13 0.14 93 1007.0
20260509213906 53 269 0.0 2.6 0.00 0.13 0.14 93 1007.0
20260509213406 53 135 1.7 2.6 0.00 0.13 0.14 93 1007.0
20260509213040 53 0 0.9 1.7 0.00 0.00 0.00 100 1007.4
20260509212906 54 178 0.9 2.6 0.00 0.13 0.14 93 1007.0
20260509212406 54 157 0.9 2.6 0.00 0.13 0.14 93 1007.0
20260509211906 54 45 0.0 0.9 0.00 0.13 0.14 93 1007.1
20260509211630 54 1 0.0 0.9 0.00 0.13 0.14 93 1007.1
20260509211542 53 196 0.9 1.7 0.00 0.00 0.00 100 1007.4
20260509210906 54 45 0.9 1.7 0.00 0.13 0.13 93 1007.1
20260509210405 54 206 0.0 1.7 0.00 0.13 0.13 93 1007.0
20260509210038 54 0 0.9 2.6 0.00 0.00 0.00 100 1007.4
20260509205906 54 145 0.9 1.7 0.00 0.13 0.13 93 1006.9
20260509205622 54 178 0.0 0.9 0.00 0.13 0.13 93 1007.0
20260509204906 54 178 0.9 1.7 0.00 0.13 0.13 93 1006.9
20260509204542 54 0 0.0 1.7 0.00 0.00 0.00 100 1007.3
20260509204404 54 206 0.9 1.7 0.00 0.13 0.13 93 1006.9
20260509203906 54 1 0.0 1.7 0.00 0.13 0.13 93 1006.7
20260509203405 54 16 0.9 1.7 0.00 0.13 0.13 93 1006.7
20260509203038 54 41 0.9 1.7 0.00 0.00 0.00 100 1007.1
20260509202905 54 68 0.9 1.7 0.00 0.13 0.13 93 1006.7
20260509202404 55 28 0.9 1.7 0.00 0.13 0.13 93 1006.6
20260509201905 54 1 0.9 1.7 0.00 0.13 0.13 93 1006.6
20260509201535 54 265 0.9 0.9 0.00 0.00 0.00 100 1006.9
20260509201403 55 56 0.9 0.9 0.00 0.13 0.13 93 1006.5
20260509200904 55 45 0.9 1.7 0.00 0.13 0.13 93 1006.5
20260509200403 55 89 0.9 1.7 0.00 0.13 0.13 93 1006.4
20260509200124 55 178 0.9 1.7 0.00 0.13 0.13 93 1006.3
20260509200044 54 178 0.0 0.9 0.00 0.00 0.00 100 1006.9
20260509195403 55 178 0.9 1.7 0.00 0.13 0.13 93 1006.3
20260509194905 55 165 0.9 1.7 0.00 0.13 0.13 93 1006.3
20260509194543 54 111 0.9 0.9 0.00 0.00 0.00 100 1006.7
20260509194404 55 145 0.9 1.7 0.00 0.13 0.13 93 1006.3
20260509193904 55 45 0.9 1.7 0.01 0.13 0.13 93 1006.2
20260509193403 55 102 0.9 1.7 0.01 0.13 0.13 92 1006.2
20260509193043 63 265 0.0 0.9 0.00 0.00 0.00 100 1006.6
20260509192904 55 35 0.9 0.9 0.01 0.13 0.13 92 1006.0
20260509192402 55 35 0.9 1.7 0.02 0.13 0.13 92 1006.0
20260509191903 55 56 0.9 1.7 0.02 0.13 0.13 92 1005.9
20260509191537 63 120 0.0 0.9 0.00 0.00 0.00 100 1006.4
20260509191401 55 89 0.9 0.9 0.02 0.13 0.13 92 1005.9
20260509190850 55 117 0.9 0.9 0.03 0.13 0.13 91 1005.9
20260509190333 55 20 0.9 0.9 0.04 0.13 0.13 91 1005.8
20260509190036 63 0 0.0 0.9 0.00 0.00 0.00 100 1006.3
20260509185831 55 269 0.0 0.9 0.04 0.10 0.13 91 1005.8
20260509185332 55 20 0.9 1.7 0.04 0.10 0.13 91 1005.8
20260509185050 55 314 0.9 1.7 0.04 0.10 0.13 91 1005.7
20260509184535 63 0 0.0 0.9 0.00 0.00 0.00 100 1006.1
20260509184330 55 89 0.9 1.7 0.05 0.10 0.13 91 1005.7
20260509184248 55 63 0.9 1.7 0.06 0.10 0.13 91 1005.6
20260509183527 55 72 0.9 1.7 0.07 0.10 0.12 90 1005.6
20260509183039 63 0 0.9 1.7 0.00 0.00 0.00 67 1006.0
20260509182803 56 45 0.9 1.7 0.12 0.10 0.12 90 1005.5
20260509182301 56 20 0.9 1.7 0.12 0.10 0.12 90 1005.5
20260509181802 56 24 0.9 5.2 0.12 0.10 0.12 90 1005.4
20260509181537 63 265 1.7 5.2 0.00 0.00 0.00 67 1005.9
20260509181301 56 152 2.6 5.2 0.11 0.10 0.11 89 1005.4
20260509180802 56 178 1.7 3.5 0.11 0.10 0.10 88 1005.4
20260509180301 56 197 1.7 3.5 0.10 0.10 0.10 88 1005.4
20260509180231 57 193 1.7 4.3 0.09 0.00 0.09 86 1005.2
20260509180035 63 209 0.9 1.7 0.00 0.00 0.00 67 1005.8
20260509175956 56 223 0.9 4.3 0.09 0.00 0.09 87 1005.2
20260509174802 57 152 2.6 4.3 0.09 0.00 0.08 84 1005.2
20260509174533 63 178 0.9 2.6 0.00 0.00 0.00 67 1005.7
20260509174301 58 54 0.9 2.6 0.07 0.00 0.07 83 1005.1
20260509173802 59 135 0.9 4.3 0.06 0.00 0.06 81 1005.2
20260509173301 60 149 2.6 5.2 0.05 0.00 0.04 79 1005.2
20260509173045 63 144 0.9 2.6 0.00 0.00 0.00 67 1005.6
20260509172801 61 286 0.9 5.2 0.00 0.00 0.00 74 1005.2
20260509172300 61 171 1.7 7.8 0.00 0.00 0.00 72 1004.2
20260509171801 62 337 2.6 7.8 0.00 0.00 0.00 71 1003.8
20260509171544 63 261 2.6 5.2 0.00 0.00 0.00 67 1004.5
20260509171300 62 344 2.6 5.2 0.00 0.00 0.00 70 1003.9
20260509171021 62 223 1.7 3.5 0.00 0.00 0.00 70 1004.0
20260509170300 63 296 3.5 5.2 0.00 0.00 0.00 69 1004.0
20260509170041 63 265 0.9 4.3 0.00 0.00 0.00 67 1004.5
20260509165801 63 281 1.7 5.2 0.00 0.00 0.00 68 1003.9
20260509165259 64 347 1.7 4.3 0.00 0.00 0.00 67 1004.0
20260509164801 65 223 1.7 7.8 0.00 0.00 0.00 70 1004.0
20260509164536 66 321 0.9 7.0 0.00 0.00 0.00 69 1004.5
20260509164300 65 68 2.6 7.8 0.00 0.00 0.00 70 1004.0
20260509163800 66 251 1.7 3.5 0.00 0.00 0.00 69 1003.8
20260509163258 66 1 0.9 2.6 0.00 0.00 0.00 68 1003.7
20260509163038 66 68 0.9 1.7 0.00 0.00 0.00 82 1004.3
20260509162801 67 319 1.7 2.6 0.00 0.00 0.00 65 1003.7
20260509162526 67 331 0.9 3.5 0.00 0.00 0.00 63 1003.7
20260509161758 67 296 1.7 3.5 0.00 0.00 0.00 62 1003.8
20260509161540 67 22 1.7 2.6 0.00 0.00 0.00 81 1004.3
20260509161255 67 117 0.9 1.7 0.00 0.00 0.00 64 1003.7
20260509160756 68 241 0.9 2.6 0.00 0.00 0.00 61 1003.7
20260509160254 68 45 1.7 2.6 0.00 0.00 0.00 61 1003.6
20260509160039 65 137 0.0 2.6 0.00 0.00 0.00 81 1004.2
20260509155751 68 135 0.9 2.6 0.00 0.00 0.00 59 1003.6
20260509155251 68 152 1.7 3.5 0.00 0.00 0.00 61 1003.5
20260509154751 67 89 1.7 5.2 0.00 0.00 0.00 62 1003.5
20260509154538 65 34 1.7 3.5 0.00 0.00 0.00 82 1004.2
20260509154249 67 104 1.7 5.2 0.00 0.00 0.00 62 1003.6
20260509153749 67 178 1.7 6.1 0.00 0.00 0.00 62 1003.5
20260509153241 67 257 4.3 6.1 0.00 0.00 0.00 63 1003.6
20260509153036 65 86 1.7 8.7 0.00 0.00 0.00 62 1004.2
20260509152739 67 68 1.7 6.1 0.00 0.00 0.00 64 1003.4
20260509152239 67 162 3.5 5.2 0.00 0.00 0.00 67 1003.3
20260509151737 67 45 1.7 5.2 0.00 0.00 0.00 69 1003.5
20260509151543 65 66 1.7 3.5 0.00 0.00 0.00 60 1004.1
20260509151237 66 223 1.7 4.3 0.00 0.00 0.00 69 1003.7
20260509150732 65 135 1.7 4.3 0.00 0.00 0.00 72 1003.7
20260509150232 65 281 1.7 3.5 0.00 0.00 0.00 71 1003.7
20260509150039 65 142 1.7 1.7 0.00 0.00 0.00 60 1004.4
20260509145732 64 72 1.7 4.3 0.00 0.00 0.00 75 1003.7
20260509145231 63 120 1.7 4.3 0.00 0.00 0.00 74 1003.8
20260509144728 63 25 1.7 3.5 0.00 0.00 0.00 78 1003.8
20260509144558 65 41 0.9 2.6 0.00 0.00 0.00 60 1004.4
20260509144228 62 54 1.7 3.5 0.00 0.00 0.00 75 1003.9
20260509143702 62 223 0.9 3.5 0.00 0.00 0.00 76 1004.1
20260509143202 62 206 0.9 2.6 0.00 0.00 0.00 74 1004.3
20260509143041 65 232 0.9 1.7 0.00 0.00 0.00 60 1005.0
20260509142703 62 331 1.7 4.3 0.00 0.00 0.00 73 1004.4
20260509142202 63 168 1.7 4.3 0.00 0.00 0.00 72 1004.5
20260509141701 63 61 1.7 3.5 0.00 0.00 0.00 71 1004.8
20260509141540 65 41 0.9 3.5 0.00 0.00 0.00 60 1005.2
20260509141203 64 223 0.9 3.5 0.00 0.00 0.00 70 1004.8
20260509140702 65 213 1.7 4.3 0.00 0.00 0.00 68 1004.7
20260509140202 65 193 1.7 4.3 0.00 0.00 0.00 67 1004.5
20260509140058 65 212 0.9 1.7 0.00 0.00 0.00 60 1005.1
20260509135702 65 165 0.9 4.3 0.00 0.00 0.00 66 1004.5
20260509135425 65 216 0.9 4.3 0.00 0.00 0.00 66 1004.4
20260509134702 66 213 0.9 4.3 0.00 0.00 0.00 66 1004.3
20260509134533 66 9 0.9 2.6 0.00 0.00 0.00 60 1005.0
20260509134202 66 213 1.7 4.3 0.00 0.00 0.00 62 1004.3
20260509133702 66 73 0.9 4.3 0.00 0.00 0.00 62 1004.2
20260509133202 67 202 1.7 10.4 0.00 0.00 0.00 58 1004.1
20260509133039 69 132 2.6 5.2 0.00 0.00 0.00 56 1004.8
20260509132701 67 161 2.6 10.4 0.00 0.00 0.00 56 1004.1
20260509132203 69 56 1.7 3.5 0.00 0.00 0.00 57 1004.0
20260509131702 69 161 1.7 3.5 0.00 0.00 0.00 54 1004.0
20260509131549 69 51 0.9 1.7 0.00 0.00 0.00 52 1004.6
20260509131203 69 178 0.9 4.3 0.00 0.00 0.00 52 1003.9
20260509130703 69 168 0.9 4.3 0.00 0.00 0.00 51 1003.9
20260509130202 69 63 0.9 4.3 0.00 0.00 0.00 52 1003.9
20260509130040 69 0 0.0 3.5 0.00 0.00 0.00 70 1004.5
20260509125702 70 178 2.6 6.1 0.00 0.00 0.00 49 1003.8
20260509125202 70 89 1.7 11.3 0.00 0.00 0.00 48 1003.8
20260509124926 71 348 2.6 11.3 0.00 0.00 0.00 47 1003.7
20260509124537 71 68 2.6 5.2 0.00 0.00 0.00 48 1004.3
20260509124425 71 135 1.7 7.8 0.00 0.00 0.00 48 1003.5
20260509123702 72 130 2.6 5.2 0.00 0.00 0.00 48 1003.5
20260509123202 73 79 2.6 5.2 0.00 0.00 0.00 47 1003.5
20260509123034 72 144 1.7 3.5 0.00 0.00 0.00 47 1004.1
20260509122924 73 178 0.9 4.3 0.00 0.00 0.00 51 1003.7
20260509122202 72 197 1.7 4.3 0.00 0.00 0.00 49 1003.6
20260509121702 73 178 1.7 4.3 0.00 0.00 0.00 48 1003.6
20260509121547 72 61 1.7 3.5 0.00 0.00 0.00 48 1004.3
20260509121202 73 13 1.7 6.1 0.00 0.00 0.00 48 1003.8
20260509120702 73 45 2.6 6.1 0.00 0.00 0.00 47 1003.7
20260509120202 73 161 2.6 5.2 0.00 0.00 0.00 50 1003.8
20260509120038 71 200 0.9 1.7 0.00 0.00 0.00 48 1004.5
20260509115702 73 145 1.7 5.2 0.00 0.00 0.00 49 1003.8
20260509115202 72 206 1.7 4.3 0.00 0.00 0.00 51 1003.9
20260509114701 71 178 2.6 5.2 0.00 0.00 0.00 52 1003.9
20260509114539 71 149 1.7 4.3 0.00 0.00 0.00 50 1004.6
20260509114202 71 155 2.6 5.2 0.00 0.00 0.00 52 1003.9
20260509113705 71 164 1.7 3.5 0.00 0.00 0.00 53 1004.1
20260509113202 71 152 0.9 3.5 0.00 0.00 0.00 51 1004.1
20260509113035 70 76 1.7 4.3 0.00 0.00 0.00 70 1004.7
20260509112928 70 114 1.7 4.3 0.00 0.00 0.00 51 1004.1
20260509112202 70 231 2.6 4.3 0.00 0.00 0.00 53 1004.1
20260509111702 70 114 2.6 3.5 0.00 0.00 0.00 53 1004.1
20260509111536 68 93 0.9 3.5 0.00 0.00 0.00 53 1004.8
20260509111421 69 69 2.6 11.3 0.00 0.00 0.00 55 1004.2
20260509110702 69 142 1.7 11.3 0.00 0.00 0.00 56 1004.2
20260509110420 69 83 1.7 4.3 0.00 0.00 0.00 54 1004.3
20260509110035 69 133 2.6 4.3 0.00 0.00 0.00 56 1004.8
20260509105702 69 63 1.7 4.3 0.00 0.00 0.00 56 1004.3
20260509105202 69 178 1.7 6.1 0.00 0.00 0.00 54 1004.4
20260509104701 69 120 1.7 6.1 0.00 0.00 0.00 56 1004.5
20260509104539 69 74 1.7 6.1 0.00 0.00 0.00 56 1005.1
20260509104202 69 178 0.9 5.2 0.00 0.00 0.00 57 1004.7
20260509103703 69 107 2.6 6.1 0.00 0.00 0.00 54 1004.7
20260509103202 70 159 2.6 6.1 0.00 0.00 0.00 56 1004.7
20260509103039 69 144 1.7 6.1 0.00 0.00 0.00 53 1005.2
20260509102702 69 73 1.7 6.1 0.00 0.00 0.00 56 1004.8
20260509102202 69 223 0.9 6.1 0.00 0.00 0.00 56 1004.9
20260509101702 70 155 2.6 4.3 0.00 0.00 0.00 54 1004.9
20260509101540 70 178 0.0 3.5 0.00 0.00 0.00 56 1005.4
20260509101423 70 213 1.7 4.3 0.00 0.00 0.00 57 1005.0
20260509100702 69 206 2.6 4.3 0.00 0.00 0.00 55 1005.0
20260509100202 69 157 2.6 5.2 0.00 0.00 0.00 56 1005.0
20260509100035 67 144 1.7 3.5 0.00 0.00 0.00 75 1005.5
20260509095703 68 13 2.6 5.2 0.00 0.00 0.00 57 1005.0
20260509095202 68 89 1.7 4.3 0.00 0.00 0.00 60 1005.0
20260509094928 67 223 1.7 4.3 0.00 0.00 0.00 62 1005.0
20260509094537 66 292 1.7 3.5 0.00 0.00 0.00 81 1005.6
20260509094202 66 124 1.7 3.5 0.00 0.00 0.00 66 1005.1
20260509093702 66 241 1.7 5.2 0.00 0.00 0.00 69 1005.1
20260509093426 66 51 1.7 5.2 0.00 0.00 0.00 70 1005.2
20260509093035 66 325 3.5 5.2 0.00 0.00 0.00 74 1005.7
20260509092702 66 28 2.6 4.3 0.00 0.00 0.00 70 1005.3
20260509092202 65 23 0.9 2.6 0.00 0.00 0.00 73 1005.3
20260509091702 64 56 1.7 2.6 0.00 0.00 0.00 73 1005.3
20260509091539 59 31 0.9 1.7 0.00 0.00 0.00 74 1005.9
20260509091427 63 113 1.7 3.5 0.00 0.00 0.00 76 1005.5
20260509090702 62 38 1.7 3.5 0.00 0.00 0.00 76 1005.3
20260509090203 62 341 0.9 1.7 0.00 0.00 0.00 76 1005.4
20260509090035 59 0 0.0 2.6 0.00 0.00 0.00 100 1005.9
20260509085702 61 45 0.9 1.7 0.00 0.00 0.00 78 1005.4
20260509085202 61 28 0.0 1.7 0.00 0.00 0.00 78 1005.4
20260509084927 60 223 1.7 2.6 0.00 0.00 0.00 78 1005.5
20260509084541 59 59 0.9 1.7 0.00 0.00 0.00 100 1005.9
20260509084202 60 1 0.9 3.5 0.00 0.00 0.00 79 1005.5
20260509083702 60 1 1.7 3.5 0.00 0.00 0.00 81 1005.5
20260509083202 59 63 0.9 1.7 0.00 0.00 0.00 83 1005.5
20260509083046 58 0 0.0 1.7 0.00 0.00 0.00 100 1005.9
20260509082923 58 223 0.9 3.5 0.00 0.00 0.00 84 1005.4
20260509082202 58 269 0.9 3.5 0.00 0.00 0.00 84 1005.4
20260509081702 57 1 1.7 2.6 0.00 0.00 0.00 85 1005.4
20260509081540 57 46 0.9 1.7 0.00 0.00 0.00 100 1005.9
20260509081203 56 1 0.9 2.6 0.00 0.00 0.00 89 1005.5
20260509080930 56 310 0.9 1.7 0.00 0.00 0.00 89 1005.4
20260509080202 55 314 0.9 1.7 0.00 0.00 0.00 90 1005.3
20260509080037 54 0 0.0 1.7 0.00 0.00 0.00 100 1005.8
20260509075702 55 16 0.9 1.7 0.00 0.00 0.00 90 1005.3
20260509075202 54 314 0.9 1.7 0.00 0.00 0.00 89 1005.4
20260509074702 54 1 0.9 1.7 0.00 0.00 0.00 89 1005.5
20260509074536 54 76 0.0 0.9 0.00 0.00 0.00 100 1006.0
20260509074202 54 269 0.0 0.9 0.00 0.00 0.00 89 1005.6
20260509073702 54 223 0.0 0.9 0.00 0.00 0.00 89 1005.6
20260509073202 54 269 0.9 1.7 0.00 0.00 0.00 89 1005.6
20260509073039 53 0 0.0 0.9 0.00 0.00 0.00 100 1006.0
20260509072702 54 210 0.9 1.7 0.00 0.00 0.00 89 1005.6
20260509072429 54 241 0.9 0.9 0.00 0.00 0.00 90 1005.6
20260509071702 54 269 0.9 0.9 0.00 0.00 0.00 91 1005.6
20260509071539 53 250 0.9 0.9 0.00 0.00 0.00 100 1006.0
20260509071203 53 135 0.9 0.9 0.00 0.00 0.00 91 1005.6
20260509070701 53 45 0.9 1.7 0.00 0.00 0.00 91 1005.6
20260509070202 53 269 0.9 1.7 0.00 0.00 0.00 91 1005.6
20260509070041 52 178 0.9 1.7 0.00 0.00 0.00 100 1006.0
20260509065702 53 16 0.9 1.7 0.00 0.00 0.00 91 1005.6
20260509065202 52 1 0.9 1.7 0.00 0.00 0.00 90 1005.6
20260509064702 52 197 0.0 1.7 0.00 0.00 0.00 90 1005.5
20260509064545 51 137 0.9 1.7 0.00 0.00 0.00 100 1006.0
20260509064202 52 250 0.9 1.7 0.00 0.00 0.00 90 1005.6
20260509063703 52 32 0.9 1.7 0.00 0.00 0.00 90 1005.5
20260509063202 52 89 0.0 1.7 0.00 0.00 0.00 89 1005.6
20260509063035 51 265 0.0 0.9 0.00 0.00 0.00 100 1006.0
20260509062703 52 89 0.9 1.7 0.00 0.00 0.00 89 1005.6
20260509062201 51 223 0.9 0.9 0.00 0.00 0.00 89 1005.6
20260509061922 51 197 0.9 0.9 0.00 0.00 0.00 89 1005.5
20260509061542 51 0 0.9 0.9 0.00 0.00 0.00 100 1006.0
20260509061202 51 223 0.0 1.7 0.00 0.00 0.00 89 1005.4
20260509060703 51 213 0.9 1.7 0.00 0.00 0.00 89 1005.5
20260509060422 51 178 0.0 1.7 0.00 0.00 0.00 88 1005.4
20260509060038 51 0 0.0 0.9 0.00 0.00 0.00 100 1005.9
20260509055703 51 178 0.0 1.7 0.00 0.00 0.00 88 1005.4
20260509055427 51 241 0.9 1.7 0.00 0.00 0.00 88 1005.4
20260509054929 51 223 0.9 1.7 0.00 0.00 0.00 88 1005.3
20260509054539 51 221 0.9 1.7 0.00 0.00 0.00 100 1005.8
20260509054423 51 178 0.9 1.7 0.00 0.00 0.00 88 1005.3
20260509053703 51 234 0.9 1.7 0.00 0.00 0.00 88 1005.3
20260509053202 51 223 0.9 1.7 0.00 0.00 0.00 88 1005.2
20260509053105 51 0 0.0 1.7 0.00 0.00 0.00 100 1005.7
20260509052703 52 206 0.9 1.7 0.00 0.00 0.00 88 1005.3
20260509052203 52 269 0.9 1.7 0.00 0.00 0.00 88 1005.3
20260509051702 52 231 0.9 1.7 0.00 0.00 0.00 88 1005.2
20260509051538 51 0 0.0 0.9 0.00 0.00 0.00 100 1005.7
20260509051202 51 223 0.9 2.6 0.00 0.00 0.00 88 1005.2
20260509050703 51 89 0.9 2.6 0.00 0.00 0.00 89 1005.1
20260509050202 51 152 0.9 1.7 0.00 0.00 0.00 89 1005.2
20260509050037 50 0 0.0 0.9 0.00 0.00 0.00 100 1005.6
20260509045926 51 56 0.9 1.7 0.00 0.00 0.00 90 1005.1
20260509045202 51 178 0.9 0.9 0.00 0.00 0.00 91 1005.3
20260509044701 51 89 0.0 1.7 0.00 0.00 0.00 91 1005.2
20260509044536 50 0 0.0 0.9 0.00 0.00 0.00 100 1005.6
20260509044423 51 178 0.9 1.7 0.00 0.00 0.00 91 1005.2